Flag for Canada Weather past 2 weeks in Burlington, Ontario, Canada

Now
67 °F

Mild.


Feels Like: 67 °F
Forecast: N/A
Wind: 10 mph from East

Location: Burlington Piers

Current Time: Jul 24, 2014 at 7:46:11 PM

Latest Report: Jul 24, 2014 at 7:00 PM


Visibility: N/A

Pressure: 29.99 "Hg

Humidity: 53%

Dew point: 49 °F

Location of BurlingtonLocation

Historic Weather in Burlington — Graph

°F

Burlington temperature yesterday

Maximum temperature yesterday: 78 °F (at 1:00 AM)
Minimum temperature yesterday: 65 °F (at 11:00 PM)
Average temperature yesterday: 71 °F

Past Weeks' High & Low Weather Summary

 TemperatureHumidityPressure
High83 °F (Jul 22, 7:00 PM)100% (Jul 21, 1:00 AM)30.25 "Hg (Jul 21, 1:00 AM)
Low53 °F (Jul 18, 6:00 AM)33% (Jul 17, 6:00 PM)29.66 "Hg (Jul 15, 10:00 AM)
Average66 °F73%30.01 "Hg
* Reported Jul 9 6:00 PM — Jul 24 6:00 PM, Burlington, Weather by CustomWeather, © 2014

Note: Actual official high and low records may vary slightly from our data, if they occured in-between our weather recording intervals... More about our weather records

Advertising

Burlington weather history for previous 24 hours

 ConditionsComfort  
Time TempWeatherWind HumidityBarometerVisibility
6:00 PM
Jul 24
67 °FMild.9 mph53%30.00 "HgN/A
5:00 PM64 °FMild.10 mph67%30.01 "HgN/A
4:00 PM64 °FMild.10 mph66%30.03 "HgN/A
3:00 PM64 °FMild.10 mph62%30.04 "HgN/A
2:00 PM64 °FMild.9 mph57%30.05 "HgN/A
1:00 PM63 °FMild.8 mph59%30.06 "HgN/A
12:00 PM62 °FMild.8 mph69%30.08 "HgN/A
11:00 AM62 °FMild.8 mph67%30.08 "HgN/A
10:00 AM62 °FCool.8 mph64%30.07 "HgN/A
9:00 AM62 °FCool.7 mph64%30.07 "HgN/A
8:00 AM61 °FCool.6 mph63%30.07 "HgN/A
7:00 AM60 °FCool.7 mph66%30.05 "HgN/A
6:00 AM60 °FCool.12 mph67%30.04 "HgN/A
5:00 AM61 °FCool.13 mph66%30.03 "HgN/A
4:00 AM62 °FCool.15 mph66%30.01 "HgN/A
3:00 AM62 °FCool.15 mph68%30.01 "HgN/A
2:00 AM63 °FMild.16 mph66%30.01 "HgN/A
1:00 AM64 °FMild.14 mph62%30.01 "HgN/A
12:00 AM64 °FMild.7 mph63%30.01 "HgN/A
11:00 PM
Jul 23
65 °FMild.5 mph69%30.01 "HgN/A
10:00 PM67 °FMild.5 mph64%30.01 "HgN/A
9:00 PM68 °FMild.10 mph59%29.99 "HgN/A
8:00 PM68 °FMild.13 mph59%29.99 "HgN/A
7:00 PM67 °FMild.13 mph62%29.97 "HgN/A
Weather by CustomWeather, © 2014

See weather overviewHow to use our weather pages